Clinton Municipal Airport
Tuesday 8:12 PM
Temperature70° (77°/53°)
Dew Point61°
Relative Humidity73
%
Visibility9
mi
Pressure1003.4
mb
Wind DirectionWSW
250°
Wind Speed8
mph
Precipitation TodayTrace

Last 30 Observations

Time PresWx Temp DP Feels RH% Vsby Pressure Ceiling Direction Speed 1h Precip
8:12 PM 70° 61° 73
%
9
mi
1003.4
mb
WSW
250°
8
mph
0.00"
7:56 PM TS 69° 61° 75
%
9
mi
1003.1
mb
SW
230°
7
mph
0.00"
6:56 PM 74° 62° 66
%
10
mi
1002.7
mb
WSW
250°
13
mph
0.00"
5:56 PM 77° 62° 60
%
10
mi
1002.7
mb
0.00"
4:56 PM 77° 62° 60
%
10
mi
1002.4
mb
WSW
240°
24
mph
(G30)
0.00"
3:56 PM 76° 62° 62
%
10
mi
1003.1
mb
0.00"
2:56 PM 76° 62° 62
%
10
mi
1004.1
mb
SW
220°
13
mph
(G20)
0.00"
2:33 PM 73° 63° 69
%
10
mi
1004.1
mb
SW
220°
17
mph
0.00"
1:56 PM 73° 62° 68
%
10
mi
1004.8
mb
2,400
ft
SW
220°
16
mph
0.00"
12:56 PM 70° 61° 73
%
10
mi
1006.1
mb
2,200
ft
SSW
210°
15
mph
0.00"
11:56 AM 72° 61° 68
%
10
mi
1006.8
mb
2,200
ft
SW
220°
16
mph
0.00"
10:56 AM 70° 61° 73
%
10
mi
1007.5
mb
1,800
ft
SW
230°
11
mph
0.00"
9:56 AM 66° 60° 81
%
10
mi
1008.1
mb
6,000
ft
SW
220°
11
mph
0.00"
8:56 AM 61° 58° 90
%
10
mi
1008.8
mb
3,600
ft
Calm 0.00"
7:56 AM 55° 54° 96
%
8
mi
1008.5
mb
Calm 0.00"
6:56 AM 54° 52° 93
%
7
mi
1007.5
mb
3,700
ft
0.00"
5:56 AM 54° 53° 97
%
10
mi
1007.8
mb
SSW
200°
6
mph
0.00"
4:56 AM 55° 53° 93
%
10
mi
1008.5
mb
3,100
ft
S
180°
5
mph
0.00"
3:56 AM 56° 55° 97
%
10
mi
1008.5
mb
6,500
ft
S
170°
6
mph
0.00"
2:56 AM 56° 55° 97
%
10
mi
1009.2
mb
3,300
ft
Calm 0.00"
1:56 AM 57° 56° 96
%
10
mi
1009.8
mb
7,500
ft
SSE
150°
7
mph
0.00"
12:56 AM 56° 56° 100
%
10
mi
1010.8
mb
3,200
ft
Calm 0.00"
11:56 PM -RA 58° 56° 93
%
10
mi
1011.2
mb
5,000
ft
SSE
150°
3
mph
0.00"
10:56 PM 58° 56° 93
%
10
mi
1011.9
mb
6,000
ft
SSW
200°
8
mph
0.00"
10:08 PM 59° 55° 88
%
10
mi
1011.9
mb
3,000
ft
SSW
210°
9
mph
0.00"
9:56 PM 59° 56° 90
%
10
mi
1012.2
mb
1,600
ft
SW
230°
7
mph
0.00"
9:46 PM 59° 55° 88
%
10
mi
1012.2
mb
1,600
ft
SW
230°
8
mph
0.00"
8:56 PM 60° 54° 80
%
10
mi
1011.9
mb
WSW
240°
8
mph
0.00"
8:11 PM 61° 54° 77
%
10
mi
1011.2
mb
SSW
210°
9
mph
0.00"
7:56 PM 61° 54° 78
%
10
mi
1011.2
mb
2,900
ft
SW
220°
9
mph
0.00"